Location: Gungolding
(48.9246°N, 11.3502°E)
Time: 07:33:22
(UTC+02:00)

Explorer 11/Cluster Stage 4 - All Passes

Search period start: 01 April 2020 00:00
Search period end: 11 April 2020 00:00
Orbit: 467 x 1259 km, 28.8° (Epoch: 30 March)

Date Brightness Start Highest point End Pass type
(mag) Time Alt. Az. Time Alt. Az. Time Alt. Az.
09 Apr - 08:01:54 10° SSW 08:03:03 10° S 08:04:10 10° S daylight
10 Apr - 06:03:02 10° S 06:04:35 11° S 06:06:04 10° SSE visible
10 Apr - 07:50:08 10° SSW 07:52:06 11° S 07:53:58 10° S daylight
